User: anonymous   Login
Location: *
(40.7190°N, 4.2480°W)
Time: 20:36:42
(UTC+00:00)
Language:

STARLINK-1071 - Orbit

View from above orbital plane
View from above orbital plane
View from above satellite
View from above satellite

Ground track
Ground track

The orbit data is extracted from the following two-line orbital elements,

1 44934U 20001W   20158.58334491 +.00036620 +00000-0 +25190-2 0  9996
2 44934 053.0005 043.3405 0001786 084.2135 054.4645 15.05586007001751
Epoch (UTC): 06 June 2020 14:00:01
Eccentricity: 0.0001786
inclination: 53.0005°
perigee height: 548 km
apogee height: 551 km
right ascension of ascending node: 43.3405°
argument of perigee: 84.2135°
revolutions per day: 15.05586007
mean anomaly at epoch: 54.4645°
orbit number at epoch: 175

The dashed part of the orbit path shows where the satellite is in the earth's shadow,  

DLR